This is the latest recevied weather packets stored in our database for station/object DO1SN-13. If no packets are shown the sender has not sent any weather packets the latest 10 day(s).
| Time | Temp. | Humidity | Pressure | Rain* | Wind** | Luminosity | Snow |
|---|---|---|---|---|---|---|---|
| 1787857942 | 27.22° C | - | 1015.8 hPa | 0 mm | - | - | - |
| 1787857578 | 27.78° C | - | 1015.7 hPa | 0 mm | - | - | - |
| 1787857214 | 28.33° C | - | 1015.9 hPa | 0 mm | - | - | - |
| 1787856849 | 28.89° C | - | 1015.7 hPa | 0 mm | - | - | - |
| 1787856485 | 28.33° C | - | 1015.6 hPa | 0 mm | - | - | - |
| 1787856121 | 28.33° C | - | 1015.5 hPa | 0 mm | - | - | - |
| 1787855757 | 27.78° C | - | 1015.4 hPa | 0 mm | - | - | - |
| 1787855393 | 28.33° C | - | 1015.6 hPa | 0 mm | - | - | - |
| 1787855028 | 28.89° C | - | 1015.4 hPa | 0 mm | - | - | - |
| 1787854664 | 29.44° C | - | 1015.5 hPa | 0 mm | - | - | - |
| 1787854300 | 29.44° C | - | 1015.2 hPa | 0 mm | - | - | - |
| 1787853936 | 28.89° C | - | 1015.3 hPa | 0 mm | - | - | - |
| 1787853572 | 28.89° C | - | 1015.5 hPa | 0 mm | - | - | - |
| 1787853207 | 29.44° C | - | 1015.5 hPa | 0 mm | - | - | - |
| 1787852843 | 30° C | - | 1015.4 hPa | 0 mm | - | - | - |
| 1787852479 | 30° C | - | 1015.4 hPa | 0 mm | - | - | - |
| 1787852114 | 30.56° C | - | 1015.5 hPa | 0 mm | - | - | - |
| 1787851750 | 30.56° C | - | 1015.6 hPa | 0 mm | - | - | - |
| 1787851385 | 30.56° C | - | 1015.5 hPa | 0 mm | - | - | - |
| 1787851021 | 30.56° C | - | 1015.6 hPa | 0 mm | - | - | - |
| 1787850657 | 30° C | - | 1015.5 hPa | 0 mm | - | - | - |
| 1787850293 | 30.56° C | - | 1015.7 hPa | 0 mm | - | - | - |
| 1787849929 | 32.22° C | - | 1015.5 hPa | 0 mm | - | - | - |
| 1787849564 | 31.67° C | - | 1015.6 hPa | 0 mm | - | - | - |
| 1787849200 | 31.67° C | - | 1015.5 hPa | 0 mm | - | - | - |
* Rain latest hour (hover to see other rain measurements)
** Current wind speed in m/s (hover to see current wind gust speed)